TimeCDT,TemperatureF,Dew PointF,Humidity,Sea Level PressureIn,VisibilityMPH,Wind Direction,Wind SpeedMPH,Gust SpeedMPH,PrecipitationIn,Events,Conditions,WindDirDegrees,DateUTC
12:13 AM,73.4,71.6,94,29.90,5.0,Calm,Calm,-,N/A,,Clear,0,2013-08-30 05:13:00
12:33 AM,71.6,69.8,94,29.90,4.0,Calm,Calm,-,N/A,,Clear,0,2013-08-30 05:33:00
12:53 AM,71.6,69.8,94,29.91,7.0,Calm,Calm,-,N/A,,Clear,0,2013-08-30 05:53:00
1:13 AM,71.6,68.0,88,29.91,4.0,Calm,Calm,-,N/A,,Clear,0,2013-08-30 06:13:00
1:33 AM,71.6,68.0,88,29.91,5.0,Calm,Calm,-,N/A,,Clear,0,2013-08-30 06:33:00
1:53 AM,69.8,68.0,94,29.91,4.0,Calm,Calm,-,N/A,,Clear,0,2013-08-30 06:53:00
2:13 AM,71.6,68.0,88,29.91,4.0,Calm,Calm,-,N/A,,Clear,0,2013-08-30 07:13:00
2:33 AM,71.6,69.8,94,29.92,5.0,NNE,6.9,-,N/A,,Clear,20,2013-08-30 07:33:00
2:52 AM,73.4,71.6,94,29.92,7.0,Calm,Calm,-,N/A,,Clear,0,2013-08-30 07:52:00
3:13 AM,73.4,71.6,94,29.91,5.0,Calm,Calm,-,N/A,,Clear,0,2013-08-30 08:13:00
3:33 AM,73.4,71.6,94,29.91,4.0,Calm,Calm,-,N/A,,Clear,0,2013-08-30 08:33:00
3:53 AM,71.6,69.8,94,29.91,4.0,Calm,Calm,-,N/A,,Clear,0,2013-08-30 08:53:00
4:13 AM,73.4,71.6,94,29.91,4.0,NE,3.5,-,N/A,,Clear,50,2013-08-30 09:13:00
4:33 AM,73.4,71.6,94,29.91,4.0,NE,3.5,-,N/A,,Clear,50,2013-08-30 09:33:00
4:53 AM,73.4,69.8,88,29.91,4.0,Calm,Calm,-,N/A,,Clear,0,2013-08-30 09:53:00
5:13 AM,73.4,69.8,88,29.91,5.0,NE,3.5,-,N/A,,Clear,40,2013-08-30 10:13:00
5:33 AM,73.4,71.6,94,29.91,7.0,NNE,5.8,-,N/A,,Clear,30,2013-08-30 10:33:00
5:53 AM,73.4,69.8,88,29.91,10.0,NNE,6.9,-,N/A,,Clear,30,2013-08-30 10:53:00
6:13 AM,73.4,69.8,88,29.91,10.0,NNE,5.8,-,N/A,,Clear,30,2013-08-30 11:13:00
6:33 AM,71.6,68.0,88,29.92,10.0,NE,4.6,-,N/A,,Clear,40,2013-08-30 11:33:00
6:53 AM,71.6,68.0,88,29.92,10.0,NE,8.1,-,N/A,,Clear,40,2013-08-30 11:53:00
7:13 AM,71.6,68.0,88,29.93,10.0,NNE,6.9,-,N/A,,Clear,30,2013-08-30 12:13:00
7:33 AM,71.6,68.0,88,29.93,10.0,NNE,6.9,-,N/A,,Clear,30,2013-08-30 12:33:00
7:53 AM,73.4,68.0,83,29.93,10.0,NE,6.9,-,N/A,,Clear,40,2013-08-30 12:53:00
8:13 AM,73.4,68.0,83,29.93,10.0,NNE,5.8,-,N/A,,Clear,30,2013-08-30 13:13:00
8:33 AM,73.4,68.0,83,29.94,10.0,NNE,4.6,-,N/A,,Clear,30,2013-08-30 13:33:00
8:53 AM,75.2,68.0,78,29.95,10.0,NNE,8.1,-,N/A,,Clear,20,2013-08-30 13:53:00
9:13 AM,77.0,69.8,78,29.95,10.0,NNE,8.1,-,N/A,,Clear,30,2013-08-30 14:13:00
9:33 AM,77.0,68.0,74,29.95,10.0,NNE,8.1,-,N/A,,Clear,20,2013-08-30 14:33:00
9:53 AM,78.8,68.0,69,29.96,10.0,NE,8.1,-,N/A,,Clear,40,2013-08-30 14:53:00
10:13 AM,80.6,69.8,70,29.96,10.0,NE,6.9,-,N/A,,Clear,50,2013-08-30 15:13:00
10:33 AM,80.6,68.0,65,29.96,10.0,North,5.8,-,N/A,,Clear,10,2013-08-30 15:33:00
10:53 AM,80.6,68.0,65,29.97,10.0,NE,5.8,-,N/A,,Clear,40,2013-08-30 15:53:00
11:13 AM,82.4,68.0,62,29.97,10.0,NE,6.9,-,N/A,,Clear,40,2013-08-30 16:13:00
11:33 AM,82.4,68.0,62,29.97,10.0,NE,6.9,-,N/A,,Clear,50,2013-08-30 16:33:00
11:53 AM,84.2,68.0,58,29.97,10.0,NE,6.9,-,N/A,,Clear,40,2013-08-30 16:53:00
12:13 PM,82.4,68.0,62,29.97,10.0,NNE,5.8,-,N/A,,Clear,30,2013-08-30 17:13:00
12:33 PM,82.4,68.0,62,29.97,10.0,North,6.9,-,N/A,,Clear,10,2013-08-30 17:33:00
12:53 PM,82.4,66.2,58,29.97,10.0,NNE,6.9,-,N/A,,Clear,30,2013-08-30 17:53:00
1:13 PM,82.4,66.2,58,29.96,10.0,NNE,5.8,-,N/A,,Clear,30,2013-08-30 18:13:00
1:33 PM,84.2,66.2,55,29.96,10.0,NNE,5.8,-,N/A,,Clear,20,2013-08-30 18:33:00
1:53 PM,86.0,66.2,51,29.96,10.0,ENE,9.2,-,N/A,,Scattered Clouds,60,2013-08-30 18:53:00
2:13 PM,84.2,68.0,58,29.96,10.0,NE,8.1,-,N/A,,Scattered Clouds,40,2013-08-30 19:13:00
2:33 PM,86.0,66.2,51,29.96,10.0,North,5.8,-,N/A,,Clear,10,2013-08-30 19:33:00
2:53 PM,84.2,66.2,55,29.96,10.0,NE,5.8,-,N/A,,Clear,50,2013-08-30 19:53:00
3:13 PM,84.2,66.2,55,29.95,10.0,NNW,3.5,-,N/A,,Scattered Clouds,340,2013-08-30 20:13:00
3:33 PM,86.0,64.4,48,29.94,10.0,North,3.5,-,N/A,,Clear,10,2013-08-30 20:33:00
3:53 PM,86.0,64.4,48,29.94,10.0,NNE,8.1,-,N/A,,Clear,30,2013-08-30 20:53:00
4:13 PM,86.0,66.2,51,29.93,10.0,NNE,5.8,-,N/A,,Clear,20,2013-08-30 21:13:00
4:33 PM,86.0,64.4,48,29.93,10.0,NE,5.8,-,N/A,,Clear,40,2013-08-30 21:33:00
4:53 PM,86.0,64.4,48,29.92,10.0,NNE,4.6,-,N/A,,Clear,30,2013-08-30 21:53:00
5:13 PM,86.0,66.2,51,29.92,10.0,NE,6.9,-,N/A,,Clear,40,2013-08-30 22:13:00
5:33 PM,86.0,64.4,48,29.92,10.0,NNE,5.8,-,N/A,,Clear,30,2013-08-30 22:33:00
5:53 PM,84.2,66.2,55,29.92,10.0,NE,6.9,-,N/A,,Clear,40,2013-08-30 22:53:00
6:13 PM,82.4,62.6,51,29.92,10.0,NE,6.9,-,N/A,,Clear,50,2013-08-30 23:13:00
6:33 PM,82.4,64.4,54,29.92,10.0,NE,5.8,-,N/A,,Clear,40,2013-08-30 23:33:00
6:53 PM,82.4,66.2,58,29.92,10.0,ENE,6.9,-,N/A,,Clear,70,2013-08-30 23:53:00
7:13 PM,80.6,64.4,58,29.91,10.0,ENE,4.6,-,N/A,,Clear,60,2013-08-31 00:13:00
7:33 PM,77.0,66.2,69,29.91,10.0,ENE,3.5,-,N/A,,Clear,60,2013-08-31 00:33:00
7:53 PM,77.0,68.0,74,29.91,10.0,ENE,3.5,-,N/A,,Clear,70,2013-08-31 00:53:00
8:13 PM,75.2,68.0,78,29.90,10.0,ENE,3.5,-,N/A,,Clear,70,2013-08-31 01:13:00
8:33 PM,73.4,68.0,83,29.90,10.0,ENE,3.5,-,N/A,,Clear,70,2013-08-31 01:33:00
8:53 PM,71.6,66.2,83,29.90,10.0,Calm,Calm,-,N/A,,Clear,0,2013-08-31 01:53:00
9:13 PM,71.6,66.2,83,29.90,10.0,Calm,Calm,-,N/A,,Clear,0,2013-08-31 02:13:00
9:33 PM,71.6,64.4,78,29.91,10.0,Calm,Calm,-,N/A,,Clear,0,2013-08-31 02:33:00
9:53 PM,68.0,62.6,83,29.92,10.0,Calm,Calm,-,N/A,,Clear,0,2013-08-31 02:53:00
10:13 PM,68.0,64.4,88,29.92,10.0,Calm,Calm,-,N/A,,Clear,0,2013-08-31 03:13:00
10:33 PM,68.0,62.6,83,29.92,10.0,Calm,Calm,-,N/A,,Clear,0,2013-08-31 03:33:00
10:53 PM,68.0,62.6,83,29.91,7.0,Calm,Calm,-,N/A,,Clear,0,2013-08-31 03:53:00
11:13 PM,64.4,60.8,88,29.92,10.0,Calm,Calm,-,N/A,,Clear,0,2013-08-31 04:13:00
11:33 PM,64.4,62.6,94,29.92,10.0,Calm,Calm,-,N/A,,Clear,0,2013-08-31 04:33:00
11:53 PM,64.4,60.8,88,29.92,10.0,Calm,Calm,-,N/A,,Clear,0,2013-08-31 04:53:00